Regional Weather Roundup
Issued by NWS Burlington, VT

Home | Current Version | Previous Version | Text Only | Print | Product List | Glossary On
Versions: 1 2 3 4 5 6 7 8 9 10 11 12 13 14 15 16 17 18 19 20 21 22 23 24 25 26 27 28 29 30 31 32 33 34 35 36 37 38 39 40 41 42 43 44 45 46 47 48 49 50
000
ASUS41 KBTV 251430
RWRBTV
VERMONT REGIONAL WEATHER ROUNDUP
NATIONAL WEATHER SERVICE BURLINGTON VT
1000 AM EDT TUE APR 25 2017

NOTE: "FAIR" INDICATES FEW OR NO CLOUDS BELOW 12,000 FEET WITH NO
SIGNIFICANT WEATHER AND/OR OBSTRUCTIONS TO VISIBILITY.

* THESE REPORTS ARE NOT UNDER NWS QUALITY CONTROL AND/OR DO NOT
  REPORT WEATHER SUCH AS PRECIPITATION AND FOG.

VTZ001>019-251500-
_____VERMONT_____


CITY           SKY/WX    TMP DP  RH WIND       PRES   REMARKS
BURLINGTON     PTSUNNY   52  34  50 SW5       30.24S
MONTPELIER     PTSUNNY   54  38  54 SE9       30.29F
MORRISVILLE    MOSUNNY   52  34  50 CALM      30.26F
ST. JOHNSBURY*   N/A     53  35  50 MISG      30.26F
LYNDONVILLE*   FAIR      55  34  45 E6        30.28F
MIDDLEBURY*    FAIR      48  34  58 CALM      30.24S
RUTLAND*       LGT RAIN  50  38  63 SE14G21   30.25R
SPRINGFIELD    LGT RAIN  48  41  76 CALM      30.30R
HIGHGATE*      FAIR      50  32  50 NE3       30.23F
NEWPORT*       FAIR      53  36  52 SW7       30.27S
BENNINGTON     LGT RAIN  50  39  66 E10G16    30.20R
SUTTON*          N/A     54 N/A N/A MISG        N/A
ISLAND POND*     N/A     54 N/A N/A SE10        N/A
GALLUP MILLS*    N/A     57 N/A N/A MISG        N/A
UNION VILLAGE*   N/A     50 N/A N/A MISG        N/A
MT. MANSFIELD*   N/A     43 N/A N/A E35G46      N/A  WCI  32

_____LAKE CHAMPLAIN_____


CITY           SKY/WX    TMP DP  RH WIND       PRES   REMARKS
BURTON ISLAND*   N/A     43  32  65 NW3         N/A
COLCHESTER RF*   N/A     43  32  65 NE1         N/A
DIAMOND ISL*     N/A     43  28  56 NE2         N/A

$$

NYZ007-026>031-035-052-083-087-251500-
_____NORTHERN NEW YORK_____


CITY           SKY/WX    TMP DP  RH WIND       PRES   REMARKS
PLATTSBURGH    PTSUNNY   46  28  49 E6        30.24S
SARANAC LAKE   MOSUNNY   59  29  31 SE9       30.14F
MASSENA        MOSUNNY   49  28  44 NE14      30.19F
OGDENSBURG*    FAIR      53  30  41 NE6       30.15F
POTSDAM*       SUNNY     50  30  46 NE9       30.16F
STARK FALLS*     N/A     55 N/A N/A SE20        N/A
WATERTOWN      LGT RAIN  55  42  61 SE8       30.12S
FT DRUM        LGT RAIN  52  41  66 SE15G25   30.11F
ALBANY         LGT RAIN  47  37  68 N5        30.22R
GLENS FALLS    LGT RAIN  49  34  56 NW5       30.23R

$$
NHZ002-005-011-251500-
_____NEW HAMPSHIRE_____


CITY           SKY/WX    TMP DP  RH WIND       PRES   REMARKS
LEBANON        LGT RAIN  50  42  74 CALM      30.30R
KEENE          LGT RAIN  48  44  86 N6        30.29R
MT WASHINGTON  MOSUNNY   30  27  86 SE40        N/A  WCI  13
PLYMOUTH       LGT RAIN  44  39  83 SE3       30.34R
WHITEFIELD     CLOUDY    55  32  41 SE13G18   30.29R

$$

_____REGIONAL QUEBEC LOCATIONS_____


CITY           SKY/WX    TMP DP  RH WIND       PRES   REMARKS
MONTREAL       PTSUNNY   46  25  42 NE18      30.25S
QUEBEC CITY    PTSUNNY   37  16  41 E18G29    30.40F WCI  27
SHERBROOKE     SUNNY     52  30  43 NE8       30.26F

_____REGIONAL ONTARIO LOCATIONS_____


CITY           SKY/WX    TMP DP  RH WIND       PRES   REMARKS
OTTAWA         PTSUNNY   48  23  37 E16G24    30.18S

______KEY______
VSB  - VISIBILITY IN MILES
WCI  - WIND CHILL INDEX
HX   - HEAT INDEX
$$
NNNN




USA.gov is the U.S. government's official web portal to all federal, state and local government web resources and services.